Tracking 35274 objects as of 11-Sep-2026
HD Live streaming from Space Station
objects crossing your sky now

FALCON 9 DEB


FALCON 9 DEB is no longer on orbit


NORAD ID: 56364
Int'l Code: 2023-058AZ
Launch date: April 27, 2023
Source: United States (US)
Launch site: AIR FORCE WESTERN TEST RANGE (AFWTR)
Decay date: 2023-06-17

Note: This is SATELLITE DEBRIS
Your satellite tracking list
Your tracking list is empty




NASA's NSSDC Master Catalog

Two Line Element Set (TLE):
1 56364U 23058AZ  23168.46303633  .12811104  28486-5  99518-4 0  9997
2 56364  97.6518 174.1296 0006831 246.6197 113.4391 16.52717314  8608
Source of the keplerian elements: AFSPC